Location: *
(51.0333°S, 178.4667°E)
Time: 06:15:13
(UTC+00:00)

Cosmos 1025 Rocket - Pass Details

Date: 15 November 2019
Orbit: 595 x 618 km, 82.5° (Epoch: 09 December)

Event Time Altitude Azimuth Distance (km) Brightness Sun altitude
Rises 11:48:12 0° 195° (SSW) 2,886 7.9 -20.5°
Reaches altitude 10° 11:50:29 10° 199° (SSW) 1,974 6.7 -20.5°
Maximum altitude 11:54:42 51° 274° (W) 765 3.4 -20.5°
Enters shadow 11:55:31 44° 312° (NW) 840 3.4 -20.5°
